| time (UTC) | temp C | wind direction | speed KPH | gust KPH | rain 1hr cm | rain 24hr cm | rain mn cm | humidity % | barometer mb |
| 20260504201525 | 26 | 0.0 | 29.0 | 0.00 | 0.00 | 0.00 | 25 | 1005.1 | |
| 20260504200024 | 26 | 22.5 | 27.4 | 0.00 | 0.00 | 0.00 | 25 | 1005.0 | |
| 20260504194524 | 25 | 22.5 | 32.2 | 0.00 | 0.00 | 0.00 | 24 | 1005.2 | |
| 20260504193021 | 25 | 22.5 | 29.0 | 0.00 | 0.00 | 0.00 | 25 | 1005.4 | |
| 20260504191519 | 25 | 24.1 | 35.4 | 0.00 | 0.00 | 0.00 | 24 | 1005.6 | |
| 20260504190018 | 25 | 8.0 | 17.7 | 0.00 | 0.00 | 0.00 | 26 | 1006.0 | |
| 20260504184517 | 24 | 6.4 | 19.3 | 0.00 | 0.00 | 0.00 | 28 | 1006.1 | |
| 20260504183010 | 24 | 8.0 | 17.7 | 0.00 | 0.00 | 0.00 | 28 | 1006.2 | |
| 20260504181507 | 23 | 6.4 | 16.1 | 0.00 | 0.00 | 0.00 | 29 | 1006.4 | |
| 20260504180006 | 23 | 3.2 | 11.3 | 0.00 | 0.00 | 0.00 | 27 | 1006.5 | |
| 20260504174504 | 22 | 3.2 | 11.3 | 0.00 | 0.00 | 0.00 | 31 | 1006.7 | |
| 20260504173101 | 22 | 8.0 | 12.9 | 0.00 | 0.00 | 0.00 | 32 | 1006.7 | |
| 20260504171558 | 21 | 8.0 | 11.3 | 0.00 | 0.00 | 0.00 | 33 | 1006.8 | |
| 20260504081554 | 17 | 0.0 | 1.6 | 0.00 | 0.00 | 0.00 | 41 | 1006.3 | |
| 20260504044537 | 20 | 3.2 | 6.4 | 0.00 | 0.00 | 0.00 | 34 | 1005.9 | |
| 20260504043042 | 20 | 6.4 | 9.7 | 0.00 | 0.00 | 0.00 | 36 | 1005.7 | |
| 20260504041535 | 21 | 6.4 | 8.0 | 0.00 | 0.00 | 0.00 | 34 | 1005.7 | |
| 20260504040036 | 23 | 6.4 | 9.7 | 0.00 | 0.00 | 0.00 | 28 | 1005.7 | |
| 20260504034536 | 25 | 4.8 | 9.7 | 0.00 | 0.00 | 0.00 | 25 | 1005.5 | |
| 20260504033034 | 25 | 4.8 | 11.3 | 0.00 | 0.00 | 0.00 | 25 | 1005.5 | |
| 20260504031534 | 24 | 6.4 | 11.3 | 0.00 | 0.00 | 0.00 | 27 | 1005.2 | |
| 20260504030033 | 25 | 3.2 | 6.4 | 0.00 | 0.00 | 0.00 | 25 | 1005.2 | |
| 20260504024534 | 26 | 0.0 | 0.0 | 0.00 | 0.00 | 0.00 | 23 | 1005.2 | |
| 20260504023034 | 27 | 0.0 | 0.0 | 0.00 | 0.00 | 0.00 | 22 | 1005.2 | |
| 20260504021530 | 30 | 0.0 | 0.0 | 0.00 | 0.00 | 0.00 | 19 | 1005.2 | |
| 20260504020041 | 30 | 0.0 | 0.0 | 0.00 | 0.00 | 0.00 | 20 | 1005.3 | |
| 20260504014538 | 27 | 0.0 | 0.0 | 0.00 | 0.00 | 0.00 | 21 | 1005.4 | |
| 20260504013035 | 29 | 0.0 | 0.0 | 0.00 | 0.00 | 0.00 | 20 | 1005.5 | |
| 20260504011523 | 30 | 0.0 | 1.6 | 0.00 | 0.00 | 0.00 | 19 | 1005.7 | |
| 20260504010020 | 30 | 0.0 | 0.0 | 0.00 | 0.00 | 0.00 | 18 | 1005.8 | |
| 20260504004517 | 29 | 0.0 | 4.8 | 0.00 | 0.00 | 0.00 | 20 | 1006.0 | |
| 20260504003011 | 28 | 0.0 | 8.0 | 0.00 | 0.00 | 0.00 | 20 | 1006.2 | |
| 20260504001508 | 28 | 0.0 | 1.6 | 0.00 | 0.00 | 0.00 | 22 | 1006.3 | |
| 20260504000005 | 27 | 6.4 | 12.9 | 0.00 | 0.00 | 0.00 | 21 | 1006.5 | |
| 20260503234503 | 28 | 0.0 | 8.0 | 0.00 | 0.00 | 0.00 | 20 | 1006.6 | |
| 20260503233107 | 29 | 0.0 | 4.8 | 0.00 | 0.00 | 0.00 | 22 | 1006.7 | |
| 20260503231557 | 28 | 0.0 | 6.4 | 0.00 | 0.00 | 0.00 | 20 | 1007.1 | |
| 20260503230112 | 29 | 0.0 | 6.4 | 0.00 | 0.00 | 0.00 | 21 | 1007.4 | |
| 20260503224553 | 28 | 0.0 | 6.4 | 0.00 | 0.00 | 0.00 | 20 | 1007.6 | |
| 20260503223048 | 28 | 0.0 | 8.0 | 0.00 | 0.00 | 0.00 | 21 | 1007.8 | |
| 20260503221543 | 28 | 1.6 | 11.3 | 0.00 | 0.00 | 0.00 | 21 | 1008.1 | |
| 20260503220046 | 28 | 8.0 | 17.7 | 0.00 | 0.00 | 0.00 | 21 | 1008.4 | |
| 20260503214540 | 27 | 1.6 | 11.3 | 0.00 | 0.00 | 0.00 | 22 | 1008.6 | |
| 20260503213036 | 26 | 9.7 | 17.7 | 0.00 | 0.00 | 0.00 | 20 | 1008.7 | |
| 20260503211534 | 26 | 9.7 | 17.7 | 0.00 | 0.00 | 0.00 | 21 | 1008.8 | |
| 20260503210029 | 26 | 3.2 | 9.7 | 0.00 | 0.00 | 0.00 | 21 | 1009.1 | |
| 20260503204526 | 26 | 9.7 | 12.9 | 0.00 | 0.00 | 0.00 | 21 | 1009.4 | |
| 20260503203042 | 26 | 3.2 | 16.1 | 0.00 | 0.00 | 0.00 | 22 | 1009.8 |